[[{"header":{"parameterUnit":"m.s-1","parameterCategory":1,"la1":30.2991,"la2":30.254,"lo1":-89.0895,"lo2":-89.0444,"dy":0.0017,"dx":0.0017,"nx":28,"ny":28,"refTime":"2025-12-31T03:00:00:Z","depth":0,"parameterNumber":2,"parameterNumberName":"U-component_of_WINDS"},"data":[0,0,0,0,0,0,0,0,0,0,0,0,0,0,0,0,0,0,0,0,0,0,0,0,0,0,0,0,0,0,0,0,0,0,0,0,0,0,0,0,0,0,0,0,0,0,0,0,0,0,0,0,0,0,0,0,0,0,5.0272,5.0274,0,5.047,5.0472,5.0474,5.0387,5.0382,5.0377,5.0373,5.0579,5.0589,5.0599,0,0,0,0,0,0,0,0,0,0,0,0,0,4.9819,4.9828,5.0271,5.0274,5.0276,5.0469,5.0472,5.0475,5.0388,5.0382,5.0376,5.037,5.0576,5.0588,5.06,0,0,0,0,0,0,0,0,0,0,0,0,0,5.0017,4.9831,5.0271,5.0256,5.0257,5.0469,5.0472,5.0476,5.0389,5.0382,5.0375,5.0368,5.0572,5.0586,5.0601,5.0841,0,0,5.0647,5.0654,0,0,0,0,0,0,0,0,5.0005,5.0033,5.0256,5.0258,5.0259,5.0396,5.0388,5.0598,5.0391,5.0339,5.0373,5.0364,5.0524,5.0543,5.0596,5.085,5.0859,5.0649,5.0658,5.0664,5.0669,0,0,0,0,0,0,0,4.9992,5.0024,5.035,5.0259,5.0261,5.024,5.026,5.0428,5.047,5.0343,5.0337,5.0362,5.0524,5.0582,5.06,5.0862,5.0648,5.0662,5.0671,5.0677,5.132,5.1327,0,0,0,0,0,0,4.9978,5.0013,5.0344,5.0356,5.0111,5.0254,5.0277,5.0359,5.0468,5.0478,5.0368,5.0357,5.056,5.0583,5.0607,5.0893,5.0664,5.0678,5.0687,5.1312,5.1322,5.133,0,0,0,0,0,0,4.9969,5.0008,5.0336,5.0183,5.0223,5.027,5.0364,5.0367,5.0425,5.0487,5.0494,5.0419,5.0555,5.0586,5.0782,5.0899,5.0685,5.0699,5.1302,5.1315,5.1326,5.1467,0,0,0,0,0,0,4.9956,5.0006,5.0097,5.0186,5.0232,5.0508,5.0371,5.0376,5.0451,5.0439,5.0537,5.0546,5.0552,5.076,5.0797,5.0916,5.071,5.1292,5.1308,5.1322,5.1452,5.1482,5.1508,0,0,0,0,0,4.994,5.013,5.0102,5.0142,5.0347,5.0514,5.0541,5.0542,5.0461,5.0553,5.0592,5.0543,5.088,5.0781,5.0822,5.0947,5.1285,5.1303,5.1321,5.1439,5.1476,5.1508,0,0,0,0,0,0,5.0055,5.0141,5.0111,5.0335,5.0418,5.0499,5.0616,5.0581,5.069,5.0674,5.0671,5.0694,5.0897,5.0942,5.083,5.1183,5.107,5.1097,5.1146,5.1182,5.1209,5.1194,5.0723,0,0,0,0,0,5.0106,5.0234,5.0303,5.0494,5.0537,5.0569,5.0643,5.0636,5.0722,5.0757,5.0811,5.0897,5.1022,5.1104,5.1223,5.1458,5.1477,5.1564,5.1592,5.1614,5.1638,5.1764,5.1802,5.139,5.139,5.1389,0,0,5.0213,5.0276,5.0358,5.0519,5.0582,5.0715,5.06,5.0746,5.0845,5.078,5.0967,5.101,5.1106,5.1322,5.142,5.1365,5.1756,5.1638,5.1655,5.1667,5.1786,5.1825,5.186,5.1402,5.14,5.1398,0,0,5.0477,5.0538,5.0702,5.0768,5.0864,5.0884,5.0924,5.101,5.1035,5.1224,5.1177,5.1295,5.151,5.158,5.1644,5.1931,5.189,5.197,5.2116,5.2239,5.2271,5.23,5.2401,5.2438,5.1993,5.1993,5.1994,0,5.0598,5.0796,5.0792,5.0941,5.1013,5.0958,5.1125,5.1189,5.132,5.1371,5.1307,5.1575,5.1636,5.1867,5.1936,5.1991,5.2035,5.1959,5.2267,5.2296,5.2323,5.2419,5.2457,5.2002,5.2001,5.2,5.2,0,5.094,5.1078,5.12,5.1325,5.1411,5.1568,5.1588,5.1675,5.166,5.1687,5.1878,5.1949,5.208,5.2134,5.2123,5.2364,5.2326,5.2266,5.2152,5.2371,5.2461,5.2498,5.2015,5.2012,5.2009,5.2007,0,0,5.1283,5.1402,5.1447,5.1502,5.1604,5.1711,5.1865,5.1991,5.2065,5.2158,5.2286,5.2469,5.2412,5.2485,5.248,5.2588,5.2809,5.2514,5.2516,5.2565,5.3077,5.3121,5.3164,5.2782,5.2789,5.2795,5.3068,0,5.1553,5.1822,5.1821,5.207,5.2197,5.2146,5.228,5.2357,5.2386,5.2498,5.2529,5.2658,5.2575,5.2617,5.2722,5.276,5.2912,5.274,5.2902,5.2908,5.2879,5.3212,5.326,5.3514,5.3104,5.311,5.3114,0,5.1904,5.2005,5.2266,5.2347,5.24,5.2521,5.2635,5.2743,5.2829,5.2842,5.2921,5.29,5.3056,5.2938,5.3154,5.3037,5.3103,5.3132,5.3142,5.3156,5.3024,5.3234,5.3596,5.3633,5.317,5.3165,5.3161,0,5.2126,5.2328,5.2509,5.2558,5.2658,5.2743,5.2789,5.2867,5.2942,5.3043,5.3091,5.321,5.3274,5.3366,5.3377,5.329,5.3593,5.3477,5.3608,5.3608,5.3674,5.367,5.405,5.3719,5.3718,5.3717,5.3717,0,5.2427,5.2589,5.261,5.2721,5.29,5.2898,5.3075,5.3113,5.3183,5.3301,5.3265,5.3377,5.3384,5.3499,5.3508,5.3684,5.3714,5.3729,5.3729,5.3732,5.373,5.3775,5.3757,5.3727,5.3725,5.3723,5.3722,0,5.2706,5.2726,5.2921,5.2998,5.3021,5.3149,5.3215,5.3322,5.3345,5.3495,5.353,5.3569,5.3702,5.3721,5.3878,5.3883,5.4094,5.4077,5.4065,5.4062,5.4192,5.4179,5.4614,5.467,5.4303,5.4307,5.4309,0,5.2896,5.3019,5.3108,5.3184,5.3233,5.3356,5.3432,5.3434,5.3515,5.362,5.3714,5.3842,5.3945,5.416,5.4202,5.4321,5.4305,5.445,5.4323,5.4321,5.4306,5.4298,5.431,5.4474,5.4478,5.4481,5.4484,0,5.3232,5.3235,5.3345,5.3459,5.355,5.364,5.3725,5.3789,5.3802,5.3894,5.4029,5.4108,5.4266,5.4394,5.4511,5.4558,5.4524,5.4523,5.456,5.4563,5.455,5.4557,5.413,5.4513,5.451,5.4508,5.4507,5.4505,5.3472,5.3577,5.3656,5.3779,5.3843,5.3922,5.4025,5.4061,5.4172,5.43,5.4295,5.4442,5.4523,5.4676,5.4731,5.4846,5.4799,5.4853,5.4866,5.4879,5.4891,5.4532,5.4868,5.4867,5.4866,5.4866,5.4865,0,5.3804,5.3852,5.3965,5.4083,5.418,5.4137,5.4228,5.4312,5.4442,5.4519,5.462,5.4774,5.4897,5.4948,5.5069,5.5151,5.5138,5.5183,5.5176,5.5187,5.4927,5.4883,5.5191,5.5191,5.5191,5.5191,5.5191,5.5191,5.3989,5.4164,5.4177,5.4383,5.4429,5.4572,5.4628,5.47,5.4762,5.4934,5.5036,5.5067,5.5134,5.5259,5.537,5.5381,5.5427,5.5479,5.5483,5.5239,5.5206,5.5175,5.5133,5.5489,5.5489,5.5734,5.5736,5.5738]},{"header":{"parameterUnit":"m.s-1","parameterCategory":1,"la1":30.2991,"la2":30.254,"lo1":-89.0895,"lo2":-89.0444,"dy":0.0017,"dx":0.0017,"nx":28,"ny":28,"refTime":"2025-12-31T03:00:00:Z","depth":0,"parameterNumber":3,"parameterNumberName":"V-component_of_WINDS"},"data":[0,0,0,0,0,0,0,0,0,0,0,0,0,0,0,0,0,0,0,0,0,0,0,0,0,0,0,0,0,0,0,0,0,0,0,0,0,0,0,0,0,0,0,0,0,0,0,0,0,0,0,0,0,0,0,0,0,0,0.8552,0.8552,0,0.8567,0.8567,0.8567,0.8533,0.8532,0.8531,0.853,0.8547,0.8548,0.8549,0,0,0,0,0,0,0,0,0,0,0,0,0,0.8496,0.8497,0.8552,0.8552,0.8553,0.8567,0.8567,0.8567,0.8534,0.8532,0.8531,0.853,0.8546,0.8548,0.8549,0,0,0,0,0,0,0,0,0,0,0,0,0,0.8516,0.8497,0.8552,0.8537,0.8536,0.8567,0.8567,0.8567,0.8534,0.8532,0.8531,0.8529,0.8545,0.8548,0.855,0.8595,0,0,0.8556,0.8557,0,0,0,0,0,0,0,0,0.8515,0.8518,0.8539,0.8539,0.8537,0.8547,0.8553,0.8577,0.8534,0.8535,0.853,0.8528,0.8548,0.855,0.8556,0.8596,0.8597,0.8557,0.8558,0.8559,0.8559,0,0,0,0,0,0,0,0.8514,0.8518,0.8558,0.854,0.8538,0.853,0.8531,0.8557,0.855,0.8535,0.8532,0.8534,0.8547,0.8554,0.8556,0.8597,0.8556,0.8558,0.856,0.8561,0.8674,0.8675,0,0,0,0,0,0,0.8514,0.8517,0.8558,0.8558,0.8522,0.8533,0.8534,0.8545,0.855,0.8549,0.8536,0.8533,0.8551,0.8554,0.8557,0.861,0.8559,0.8561,0.8562,0.8672,0.8674,0.8676,0,0,0,0,0,0,0.8513,0.8518,0.8557,0.8537,0.8541,0.8535,0.8548,0.8546,0.8553,0.8551,0.8549,0.8544,0.855,0.8554,0.8586,0.861,0.8562,0.8564,0.867,0.8673,0.8675,0.8716,0,0,0,0,0,0,0.8512,0.8518,0.8535,0.8537,0.8542,0.8586,0.855,0.8548,0.8557,0.8553,0.8558,0.8558,0.8549,0.8583,0.8588,0.8612,0.8565,0.8668,0.8671,0.8674,0.8713,0.872,0.8726,0,0,0,0,0,0.851,0.8547,0.8536,0.8542,0.8564,0.8587,0.859,0.8579,0.8559,0.8576,0.8574,0.8557,0.8606,0.8586,0.8592,0.8617,0.8666,0.867,0.8674,0.871,0.8719,0.8726,0,0,0,0,0,0,0.8549,0.8547,0.8535,0.8574,0.8581,0.8581,0.8603,0.8589,0.8602,0.8598,0.8584,0.8585,0.862,0.8621,0.8599,0.866,0.8633,0.8638,0.8658,0.8666,0.8673,0.8672,0.8567,0,0,0,0,0,0.8562,0.8581,0.8578,0.8613,0.8617,0.8609,0.8619,0.861,0.8616,0.8619,0.862,0.8627,0.8644,0.8655,0.8671,0.8713,0.8713,0.8733,0.8739,0.8745,0.8749,0.8771,0.8779,0.8689,0.8689,0.8689,0,0,0.859,0.8591,0.8604,0.8621,0.8625,0.8645,0.8612,0.8635,0.8649,0.8623,0.8653,0.8653,0.866,0.8697,0.8713,0.87,0.8774,0.875,0.8754,0.8756,0.8775,0.8784,0.8792,0.8691,0.8691,0.869,0,0,0.865,0.8653,0.8681,0.8686,0.8692,0.8686,0.8693,0.8695,0.8694,0.8724,0.8704,0.8721,0.875,0.8756,0.8763,0.8823,0.8807,0.8828,0.8863,0.8884,0.8891,0.8897,0.8918,0.8926,0.8833,0.8833,0.8833,0,0.8683,0.8712,0.8698,0.8721,0.8729,0.8705,0.8734,0.8739,0.875,0.8756,0.874,0.8775,0.8779,0.8816,0.883,0.8837,0.8844,0.8828,0.8891,0.8897,0.8903,0.8922,0.893,0.8835,0.8835,0.8835,0.8834,0,0.8752,0.8772,0.8795,0.8805,0.8815,0.8841,0.8831,0.8843,0.8833,0.8829,0.8858,0.8861,0.8876,0.8884,0.8875,0.892,0.8911,0.8893,0.8865,0.8914,0.8932,0.894,0.8839,0.8838,0.8837,0.8836,0,0,0.8839,0.884,0.8848,0.8852,0.8856,0.8871,0.8895,0.8909,0.8919,0.8927,0.8947,0.8972,0.8955,0.8963,0.8953,0.8972,0.9018,0.8952,0.8951,0.8963,0.9067,0.908,0.9088,0.9007,0.9009,0.901,0.9066,0,0.8898,0.8939,0.8927,0.8968,0.8986,0.8963,0.8984,0.8988,0.8985,0.9,0.8996,0.9013,0.899,0.8994,0.9011,0.9009,0.9038,0.9004,0.9025,0.9026,0.9024,0.9098,0.9112,0.9165,0.9073,0.9074,0.9075,0,0.8972,0.8982,0.9025,0.9024,0.9031,0.9051,0.9061,0.9075,0.908,0.9076,0.9084,0.907,0.9094,0.9065,0.9097,0.9074,0.9082,0.9082,0.9084,0.9085,0.9054,0.9101,0.9182,0.9189,0.9086,0.9085,0.9084,0,0.903,0.9054,0.9082,0.9086,0.9087,0.91,0.9101,0.9104,0.9113,0.9122,0.9127,0.914,0.9146,0.9156,0.9146,0.9126,0.9179,0.915,0.9176,0.9177,0.9189,0.9188,0.9271,0.9194,0.9194,0.9194,0.9194,0,0.9097,0.9124,0.9108,0.9126,0.9155,0.914,0.9169,0.9168,0.917,0.9187,0.9168,0.9184,0.9169,0.9184,0.9176,0.9203,0.9207,0.9204,0.9202,0.9206,0.9206,0.921,0.9206,0.9196,0.9196,0.9195,0.9195,0,0.9167,0.9157,0.9186,0.9184,0.9183,0.9205,0.9203,0.9219,0.9213,0.9235,0.9239,0.923,0.9247,0.9237,0.9254,0.9249,0.9284,0.9277,0.9282,0.928,0.9306,0.9304,0.9395,0.9406,0.9323,0.9323,0.9324,0,0.921,0.923,0.9229,0.9238,0.924,0.9255,0.9263,0.9249,0.9258,0.9264,0.9279,0.9293,0.9304,0.9331,0.9326,0.9339,0.9331,0.9362,0.9333,0.9336,0.9331,0.933,0.9331,0.9368,0.9369,0.937,0.9371,0,0.9287,0.9281,0.9293,0.9303,0.9313,0.932,0.9326,0.9335,0.9321,0.9332,0.9347,0.9356,0.9372,0.9386,0.9396,0.9397,0.9382,0.938,0.9386,0.9391,0.9393,0.9391,0.9298,0.9378,0.9377,0.9377,0.9376,0.9376,0.9345,0.9361,0.9362,0.9375,0.9378,0.9383,0.9398,0.9393,0.9406,0.9418,0.9408,0.9427,0.943,0.9441,0.9444,0.9458,0.9446,0.9456,0.9458,0.946,0.9464,0.939,0.946,0.946,0.946,0.946,0.9459,0,0.942,0.9419,0.9432,0.944,0.945,0.9434,0.9439,0.9449,0.9465,0.9469,0.9479,0.9496,0.9509,0.9505,0.9517,0.9529,0.9522,0.9533,0.9531,0.9532,0.9475,0.9467,0.9538,0.9538,0.9538,0.9538,0.9538,0.9538,0.9461,0.9487,0.948,0.9507,0.9506,0.9523,0.9527,0.9532,0.9534,0.9554,0.9565,0.9562,0.9562,0.9573,0.9585,0.9583,0.9588,0.9601,0.9597,0.9544,0.9536,0.9528,0.9522,0.9602,0.9602,0.9652,0.9653,0.9653]}]]